Wind_Speed
33 29 27 26 26 28 30 32 33 34 35 36 37 37 38 38 38 38 38 37 38 37 37 36 35 34 34 33 32 31 30 28 26 27 29 30 30 30 30 30 31 32 32 32 32 32 32 34 35 36 37 38 38 38 38 38 38 38 38 37 37 39 40 41 40 38 37 38 40 43 46 48 50 48 44 40 38 37 36 36 37 38 39 39 40
35 29 27 27 27 29 32 33 32 32 33 34 35 36 37 38 39 38 38 38 37 36 35 34 34 33 33 32 31 30 29 27 28 30 32 31 30 29 29 29 30 31 31 31 31 32 34 36 37 38 39 40 41 41 42 41 41 41 40 40 42 44 45 44 43 41 40 41 44 47 50 52 52 49 44 41 39 38 37 37 36 37 37 38 39
40 36 33 33 33 33 34 34 34 34 35 36 36 36 37 38 40 40 39 38 38 37 36 35 34 33 31 30 29 29 29 30 32 34 33 32 31 30 30 30 30 31 31 33 34 35 37 38 39 40 41 42 43 44 44 44 44 44 44 45 46 47 47 46 45 43 43 45 47 51 54 56 54 50 45 42 39 38 38 38 37 36 36 37 37
42 42 40 37 35 33 32 34 35 36 36 36 36 37 38 38 40 40 40 39 39 39 38 37 35 33 31 31 31 32 33 34 35 35 34 34 33 32 32 32 32 33 34 36 37 39 41 41 42 42 43 44 45 45 46 46 47 47 48 49 50 50 50 49 47 46 47 49 51 54 57 59 57 52 48 44 42 40 39 39 39 38 37 37 37
39 40 38 36 34 33 33 36 37 37 35 34 35 36 37 38 38 38 38 38 38 39 39 37 36 35 34 35 35 35 36 36 36 35 35 35 34 34 34 34 35 37 38 40 41 43 44 44 44 44 44 45 45 46 47 49 50 51 52 53 53 52 52 52 51 51 52 53 55 57 60 61 59 55 52 48 45 43 42 40 40 39 39 38 38
38 37 36 35 35 35 36 37 38 37 35 34 35 37 38 39 38 37 36 37 38 38 38 37 36 36 37 37 38 38 37 36 35 34 35 35 35 36 37 38 39 41 42 43 44 45 46 45 45 45 45 45 46 47 49 51 52 54 56 57 58 57 56 56 56 56 57 58 60 61 63 64 62 59 56 53 50 48 46 44 43 42 41 41 40
39 38 37 37 38 38 37 37 38 38 36 35 35 37 39 40 39 39 39 38 38 37 37 36 37 38 38 39 39 38 37 36 35 35 36 38 38 40 41 42 43 44 44 45 46 46 46 46 45 44 45 46 47 49 51 52 54 56 58 60 61 62 61 60 61 61 63 64 65 66 67 67 65 62 59 57 54 52 50 48 46 45 44 44 44
42 40 40 41 42 41 39 38 40 41 39 38 38 39 40 41 42 44 46 46 44 42 40 40 40 42 42 42 41 39 38 37 37 38 40 41 42 43 44 45 46 46 46 46 47 47 46 45 45 45 46 47 49 51 53 54 57 59 61 63 65 66 65 64 64 65 67 69 69 69 70 70 68 65 63 60 57 55 53 51 50 49 47 47 46
43 41 41 42 43 42 42 42 43 43 43 43 43 43 44 45 46 47 49 50 50 49 48 48 49 50 50 48 47 45 44 43 43 44 45 45 46 47 47 47 47 47 47 48 48 47 46 46 46 47 48 49 51 53 55 58 60 63 65 67 68 67 66 65 66 68 70 71 71 71 71 71 69 66 64 62 60 57 55 54 53 52 51 50 50
45 44 43 44 43 43 42 42 43 45 46 47 46 46 47 48 47 46 46 46 47 47 48 49 51 52 53 51 50 49 48 47 47 47 47 47 47 47 47 48 48 49 49 49 49 48 48 48 48 49 50 52 54 56 59 63 66 68 68 68 68 67 67 67 69 71 73 73 73 73 72 71 69 66 64 63 61 59 57 56 55 55 54 53 53
46 46 45 44 44 43 42 42 44 45 45 45 45 46 46 47 46 44 42 42 43 44 45 47 48 51 53 52 50 48 47 46 46 46 47 47 47 48 49 50 51 51 51 50 49 49 49 50 51 52 54 56 59 63 66 69 70 69 68 67 68 69 69 70 72 75 76 76 76 75 74 72 69 67 65 64 63 61 59 58 58 57 56 56 55
48 48 47 45 44 43 42 42 44 45 44 45 46 46 47 48 48 47 45 44 45 47 48 49 51 52 53 52 49 47 45 45 46 47 48 49 50 51 51 52 52 52 51 51 51 51 52 54 56 58 61 64 66 69 70 71 70 69 69 70 71 72 73 75 78 79 80 79 79 78 76 74 71 69 67 66 64 63 62 60 59 59 58 58 57
50 50 49 48 47 47 46 45 45 45 46 47 48 49 49 49 51 52 51 50 50 51 52 53 53 52 51 49 48 47 47 48 50 51 51 52 52 53 53 54 54 54 54 54 55 56 58 60 62 64 67 69 70 71 72 72 73 74 74 75 76 78 79 81 82 82 82 81 80 79 77 75 73 71 70 69 67 65 63 61 60 59 59 59 59
52 51 52 52 51 52 52 51 50 49 48 47 48 49 49 49 51 54 54 53 53 53 54 55 55 55 54 52 52 52 52 52 53 53 53 54 55 56 56 57 58 58 59 59 60 61 63 65 67 69 70 71 72 73 74 75 77 78 79 80 81 82 83 83 84 83 82 81 79 77 76 75 74 73 73 72 70 67 64 61 60 59 59 60 60
55 55 55 55 55 55 55 55 55 55 53 51 51 52 51 51 53 55 56 57 57 57 57 58 58 57 57 56 56 56 55 55 54 55 56 56 57 58 58 59 60 61 62 64 64 66 67 70 72 74 75 76 76 76 77 78 79 81 82 83 84 84 84 84 84 83 82 81 79 77 75 73 72 72 72 73 72 69 66 63 61 61 60 60 59
60 58 58 58 59 59 59 59 59 58 57 56 56 56 56 56 56 57 57 59 60 60 60 60 60 60 59 60 60 59 59 58 58 58 58 59 60 61 62 63 64 65 66 68 69 71 73 75 77 79 80 81 81 81 81 82 83 84 85 86 85 85 85 85 84 83 82 82 80 77 75 73 70 69 70 72 73 72 70 68 65 63 62 61 61
62 61 61 61 61 62 62 64 64 62 61 60 59 60 60 60 60 60 60 60 60 60 61 61 62 62 62 63 64 63 62 62 62 62 63 63 65 66 68 68 69 70 72 73 75 77 78 80 82 83 84 84 84 85 85 85 86 86 86 86 86 85 85 85 84 83 82 81 79 77 74 72 69 67 68 70 72 73 73 72 70 68 67 67 67
64 63 63 64 64 64 65 66 66 66 65 64 64 64 64 64 64 64 64 65 65 65 65 65 66 66 66 67 68 68 68 68 69 69 70 70 71 73 73 74 75 76 78 79 81 82 84 85 86 87 87 87 88 88 88 88 87 86 86 85 84 84 85 85 84 82 81 80 78 77 74 72 71 70 70 72 74 76 76 75 74 73 73 73 73
66 65 65 65 65 66 67 68 68 69 68 68 68 68 68 69 69 69 69 70 71 72 72 72 72 73 73 74 75 75 76 76 76 77 77 77 78 78 79 79 81 82 84 86 87 88 89 90 91 91 92 92 92 91 90 89 87 86 85 83 82 82 83 83 82 81 80 80 79 78 77 75 73 72 71 73 76 79 80 79 79 80 80 79 78
69 69 69 68 68 68 68 69 70 70 71 72 72 72 73 73 74 74 75 76 76 77 79 79 79 80 81 82 83 83 83 83 83 83 84 84 85 86 86 87 88 90 91 92 93 95 96 96 96 96 96 95 93 92 91 89 87 84 83 81 80 81 81 81 81 82 82 82 82 81 80 79 77 75 74 75 77 79 80 82 83 85 85 84 82
73 73 73 72 71 71 71 71 71 72 72 73 74 75 76 77 77 78 79 80 80 82 83 84 84 85 86 87 88 88 88 89 89 90 91 92 93 93 93 94 94 95 97 98 100 100 100 100 99 98 97 95 94 92 91 88 85 82 80 80 80 81 81 82 83 84 84 85 85 84 83 82 81 80 78 78 79 79 81 83 85 86 87 87 86
75 75 75 74 74 75 75 74 74 74 74 74 75 76 78 79 80 81 82 82 83 84 85 86 87 88 89 90 91 91 92 93 94 95 96 96 97 97 98 99 100 101 102 102 103 102 102 101 100 99 97 96 94 92 90 88 85 82 81 81 82 83 84 85 85 85 86 88 87 87 87 87 86 85 82 81 81 82 82 84 85 85 86 86 86
79 78 76 76 76 76 77 77 78 78 77 77 77 78 79 80 82 83 84 85 85 86 87 88 89 90 91 92 93 94 95 96 96 97 98 99 100 101 101 102 103 103 103 102 102 101 100 100 99 98 96 94 92 90 88 86 85 83 82 83 83 83 86 87 86 87 90 91 91 92 92 92 91 89 87 85 84 84 83 83 83 84 84 85 85
83 82 80 80 79 78 77 78 79 80 81 80 80 81 81 82 83 85 86 87 88 88 89 89 90 92 93 94 95 96 97 97 98 99 100 101 102 102 103 103 103 103 102 101 100 99 98 98 96 95 93 92 90 89 87 86 86 85 85 85 85 86 89 90 90 91 95 97 97 97 96 94 93 93 91 89 87 85 84 82 82 83 83 83 83
78 78 77 77 77 77 77 77 78 80 81 82 83 83 84 85 86 87 88 90 90 91 92 92 93 94 95 96 97 98 100 101 101 102 102 103 103 104 104 105 105 104 103 101 99 98 96 95 94 93 92 92 92 91 91 90 90 90 89 89 89 91 93 93 93 96 99 100 100 100 99 98 97 95 94 91 88 85 83 82 81 81 81 81 80
68 69 69 70 72 73 73 74 75 76 78 80 81 83 85 86 87 88 89 91 92 93 94 95 96 96 97 98 99 100 101 102 103 103 104 104 104 104 104 104 103 101 100 98 97 96 94 94 93 93 93 94 94 95 95 94 94 94 93 93 93 94 94 95 96 99 101 102 101 101 100 100 99 98 96 93 88 84 82 81 80 80 79 79 77
68 70 71 71 72 73 74 75 76 77 78 79 80 81 82 84 85 87 88 89 90 91 92 93 94 95 96 97 97 98 100 101 102 103 103 103 102 102 101 100 99 99 98 97 97 96 96 96 96 96 96 97 98 98 98 98 98 98 97 96 95 95 95 96 98 101 102 103 102 101 100 98 97 97 96 92 87 84 81 80 79 79 78 77 74
77 78 78 78 79 80 81 82 82 82 82 82 82 82 83 84 85 86 87 88 89 90 91 92 93 93 94 95 96 97 99 100 101 102 102 101 100 100 100 100 100 100 100 100 100 100 100 100 100 100 100 101 101 101 101 101 100 100 99 98 98 97 96 97 99 102 102 102 102 101 99 96 95 95 94 90 86 83 81 79 78 78 77 74 71
84 85 86 86 87 87 87 87 87 87 87 87 87 87 87 88 89 90 90 91 91 92 93 94 94 95 96 96 97 98 99 100 100 100 101 101 101 101 102 103 104 104 104 104 104 104 104 104 104 104 104 104 104 104 103 103 103 102 102 100 99 98 97 97 99 101 101 101 101 100 98 95 93 93 92 89 86 84 80 77 76 76 75 71 68
89 90 92 92 92 92 92 92 92 92 92 91 91 91 91 91 92 93 93 93 93 94 95 95 96 97 97 97 98 98 99 100 101 102 103 103 104 105 105 106 107 108 108 108 108 108 108 107 107 106 106 106 106 106 105 105 104 104 103 101 98 96 95 95 98 99 100 100 99 98 96 94 92 90 89 88 85 83 79 76 75 74 71 67 64
93 94 95 96 96 96 96 95 95 95 95 94 94 93 93 93 93 93 94 94 94 95 95 96 97 97 98 99 99 100 101 102 103 104 106 107 107 108 108 109 110 111 111 111 110 110 110 110 109 109 108 108 107 107 105 104 103 102 100 98 95 93 91 91 93 95 96 96 95 93 92 91 88 86 85 84 82 80 78 75 73 70 67 65 61
93 95 96 96 97 97 96 96 96 95 95 95 95 95 95 94 94 95 95 96 96 97 97 98 98 99 100 101 102 103 104 105 106 107 108 109 110 111 112 112 112 112 112 112 111 112 112 111 110 109 108 106 105 103 100 98 97 95 93 91 89 87 86 86 87 88 89 90 89 87 86 86 84 81 80 79 78 77 76 74 70 66 64 63 60
92 93 94 95 96 96 96 96 96 96 95 96 96 96 97 97 98 98 98 98 99 99 100 101 102 102 103 104 105 106 107 108 109 110 110 111 112 112 113 113 114 113 112 112 111 110 110 108 107 104 102 99 97 94 92 90 89 87 86 84 82 81 81 81 82 82 83 83 82 81 80 80 78 76 74 74 74 73 72 70 67 62 60 59 57
93 93 94 95 96 97 97 97 97 97 97 97 98 98 98 99 100 100 100 100 100 101 102 103 104 105 106 107 107 108 109 110 111 111 112 112 113 113 113 113 113 112 110 108 106 104 102 101 99 97 94 91 88 86 84 83 82 81 79 77 76 76 76 76 76 77 77 77 77 76 75 74 73 71 70 69 68 68 67 65 63 60 57 56 53
95 95 96 96 97 98 98 98 98 98 98 99 99 99 100 100 101 101 102 102 102 103 103 104 105 106 108 108 109 110 110 111 111 112 112 112 112 111 110 109 107 105 103 100 97 94 92 90 89 89 87 84 81 79 78 77 77 75 73 71 71 72 72 72 72 72 73 73 72 72 71 70 68 67 65 64 64 64 62 61 59 56 54 52 51
96 97 97 98 99 99 100 100 100 100 100 100 101 101 101 101 102 102 103 103 104 104 104 105 105 106 108 109 109 110 110 110 110 109 109 108 107 106 104 102 99 96 94 91 88 86 84 82 82 82 80 78 76 74 73 73 72 70 68 68 68 68 68 69 69 69 69 69 69 68 68 67 65 63 62 62 62 61 59 57 55 53 51 49 49
97 98 98 99 100 100 101 101 102 102 102 102 103 103 103 103 103 104 104 105 105 105 106 106 106 106 106 106 107 106 106 105 104 103 102 101 100 99 97 95 92 90 88 85 83 81 79 77 77 76 74 73 72 71 70 69 68 65 65 65 64 64 64 65 66 66 65 65 65 65 65 64 63 62 60 60 60 59 57 55 53 50 48 48 49
97 98 99 99 100 101 102 102 102 103 103 103 103 103 103 103 103 103 103 103 103 103 102 102 102 101 100 100 99 99 98 97 96 95 94 93 92 90 89 87 85 83 81 79 76 75 73 72 71 70 68 68 68 68 66 65 63 62 61 61 60 60 61 62 62 61 61 61 62 62 62 61 60 59 59 58 57 56 55 53 50 47 46 48 50
95 96 97 97 98 98 99 99 99 99 99 99 98 98 97 96 96 96 95 95 95 95 94 94 94 93 92 91 91 90 89 89 88 87 86 85 84 82 80 79 77 75 73 71 69 67 66 65 64 64 63 64 65 64 61 59 59 59 58 57 57 58 58 58 57 57 57 58 59 59 58 57 57 56 55 55 54 53 52 49 47 45 46 48 49
91 91 92 92 92 92 92 92 91 91 90 90 89 89 88 87 87 87 87 86 86 86 86 86 85 85 84 84 83 82 82 81 80 79 78 77 76 74 73 71 69 67 65 64 62 61 59 59 59 58 58 60 61 60 57 55 54 55 55 55 55 55 55 54 53 54 55 56 56 55 54 53 53 52 51 50 49 48 47 45 44 45 46 47 46
87 87 87 87 87 86 86 85 85 84 84 83 83 82 81 81 80 80 80 80 80 80 79 79 79 78 77 77 76 75 74 73 72 72 71 70 69 68 66 64 62 60 59 58 57 55 54 53 54 54 55 56 57 57 54 50 50 52 53 52 51 51 51 51 52 53 53 53 51 51 50 49 48 48 47 46 45 44 44 43 44 45 45 44 42
83 83 83 82 82 81 81 80 80 79 79 78 78 77 77 76 76 76 76 75 75 75 74 73 72 72 71 70 69 69 68 67 66 66 65 64 63 62 60 58 56 55 54 53 53 51 50 49 49 51 52 52 52 52 51 47 47 49 51 50 49 49 49 50 51 51 50 49 48 47 47 46 45 44 44 43 43 43 43 43 43 43 42 41 39
78 78 78 78 78 77 77 76 76 76 75 75 75 74 74 73 72 72 71 71 70 69 69 68 67 66 65 65 64 64 63 63 61 61 60 59 58 57 55 53 52 51 50 49 49 47 47 46 46 47 48 48 48 48 47 45 46 48 49 48 48 48 48 48 49 49 47 47 46 45 44 44 43 42 42 42 42 42 42 41 41 41 40 39 37
73 73 73 73 73 72 72 72 72 72 71 71 70 70 69 68 68 67 67 66 66 65 64 63 62 62 61 60 60 59 59 58 57 56 56 55 54 53 52 50 48 47 47 47 45 44 43 43 43 44 45 45 45 44 43 43 45 46 47 47 47 47 47 47 47 46 45 44 43 43 42 42 41 41 41 41 41 41 41 40 40 40 38 37 37
67 67 67 67 67 67 67 67 67 67 66 66 66 65 65 64 64 63 63 63 62 61 60 59 58 57 57 57 56 56 55 55 54 53 53 52 50 49 49 48 46 45 44 44 43 42 41 41 41 41 42 42 42 42 41 42 43 44 44 44 44 44 45 45 44 43 42 41 41 41 41 40 39 40 40 40 40 40 40 40 39 38 37 37 37
61 61 61 62 62 62 62 62 62 61 61 61 61 61 61 61 60 60 60 59 58 58 57 56 55 54 54 54 53 53 52 51 50 49 49 48 46 45 45 46 45 44 43 43 42 41 41 40 40 39 39 39 40 40 39 39 40 40 40 41 41 41 42 42 41 41 40 39 39 39 39 38 38 38 38 38 38 38 38 38 37 36 35 35 35
56 56 56 56 57 57 57 57 57 57 58 58 58 58 58 58 58 57 57 56 56 55 54 54 53 52 52 51 50 50 49 48 47 46 46 46 45 43 43 42 42 41 42 42 41 40 39 38 38 37 37 37 37 37 36 36 36 37 37 38 38 39 39 39 39 38 38 37 37 37 37 37 37 36 36 36 37 37 36 36 34 33 33 33 33
52 52 53 53 53 54 54 54 54 54 54 55 55 55 55 55 55 55 55 54 54 53 52 52 51 50 49 48 47 46 45 45 44 44 44 44 44 44 42 41 39 38 39 40 40 39 37 37 36 35 35 35 35 35 34 34 34 35 36 36 37 37 38 38 38 37 37 36 36 36 36 36 36 35 34 34 34 34 33 32 32 31 31 30 30
50 50 50 51 51 51 52 52 52 52 52 52 53 53 53 53 53 53 53 52 51 51 50 49 48 47 47 46 45 44 43 42 42 42 42 42 42 42 42 41 39 38 37 38 39 38 37 35 34 34 33 33 33 33 33 33 33 34 35 36 36 37 37 37 36 36 35 35 35 35 35 34 34 33 32 31 31 30 30 30 30 29 29 28 29
48 49 49 49 49 49 49 49 50 50 50 51 51 51 51 51 51 50 50 50 49 49 48 47 46 45 44 44 43 42 41 40 40 39 39 39 40 40 40 39 39 38 37 36 37 37 36 35 33 32 32 32 32 32 32 32 32 33 34 34 35 35 35 35 34 34 34 33 33 33 33 32 31 30 29 29 29 29 29 29 28 27 27 28 28
47 47 47 47 47 47 47 47 47 48 48 49 49 49 49 49 49 48 48 47 47 47 46 45 44 43 43 42 41 41 40 40 39 38 36 36 37 37 38 38 38 38 37 35 34 34 34 34 33 31 30 30 30 30 30 31 31 31 32 32 33 33 33 33 33 33 33 32 32 31 31 30 29 29 28 28 28 29 29 28 27 27 27 28 28
Wind_Direction
243 242 246 250 254 259 264 268 269 268 266 265 264 264 263 262 262 262 263 264 265 268 270 271 273 274 277 278 279 280 279 278 279 286 293 297 298 297 297 296 295 293 291 289 287 287 289 293 296 297 298 299 300 301 302 300 297 294 288 280 278 285 290 292 296 300 304 307 309 311 312 312 312 311 309 305 302 299 295 290 286 283 280 278 275
238 237 239 244 252 263 271 272 266 260 258 259 259 260 260 260 260 262 263 265 267 268 270 271 273 275 277 277 277 276 274 275 282 291 296 297 297 296 296 295 293 292 290 289 288 289 291 294 296 297 298 299 300 301 302 302 301 298 294 287 283 285 288 290 295 300 303 305 306 309 312 314 313 311 309 307 303 300 297 293 289 285 282 279 276
234 237 243 248 255 263 266 263 257 255 256 257 257 258 259 261 264 265 267 268 268 269 270 271 273 274 274 274 273 273 275 281 289 294 295 296 296 296 296 294 292 290 288 287 288 290 292 294 295 296 297 298 298 299 299 299 301 301 300 296 291 288 287 289 293 297 300 302 304 307 311 314 314 312 310 307 304 300 297 294 291 288 284 282 278
235 239 244 249 253 255 254 254 256 258 260 260 260 259 260 263 265 266 267 267 268 270 272 273 273 272 271 271 273 276 281 287 292 292 293 295 296 296 295 292 291 289 289 289 290 292 293 293 293 294 295 296 296 296 296 297 298 300 302 301 298 292 288 289 292 295 297 300 302 306 310 314 314 313 311 308 305 302 298 295 292 289 286 283 280
238 240 243 245 245 243 245 253 259 260 262 262 260 259 258 259 261 263 265 265 266 269 271 271 270 269 269 271 274 278 282 287 290 290 293 295 295 294 293 291 291 291 291 290 291 292 292 292 292 292 293 294 295 295 295 295 296 297 299 301 301 297 291 290 291 294 297 300 303 306 310 314 314 313 312 310 307 304 301 297 294 290 286 284 280
242 243 243 242 239 239 245 253 256 257 259 260 258 256 257 257 257 258 261 262 263 266 267 267 267 268 269 270 273 276 281 286 287 289 291 291 291 290 290 289 290 291 292 291 291 292 293 294 293 292 291 292 293 294 295 294 294 294 295 298 300 300 296 293 294 296 299 303 305 308 311 313 314 313 311 310 308 306 303 301 297 292 288 285 283
239 240 239 238 238 240 244 249 251 251 254 256 255 252 253 254 254 254 255 256 259 262 263 264 266 267 268 270 273 277 281 283 284 286 289 290 290 289 290 291 292 292 293 293 294 295 295 295 294 291 290 290 291 293 294 294 293 293 294 296 299 300 299 297 297 298 301 304 306 308 310 312 313 312 310 309 308 306 305 302 299 295 290 287 285
238 238 237 236 237 239 241 243 247 249 250 251 251 250 250 252 256 258 258 257 257 258 259 261 266 269 270 272 275 279 281 281 282 285 289 291 291 292 292 293 293 293 293 294 295 296 295 294 292 289 288 289 290 293 294 294 294 294 295 296 298 299 299 298 298 299 302 304 305 307 309 310 311 310 309 308 306 305 304 302 300 296 293 291 288
239 239 239 239 240 241 241 243 246 250 251 251 252 254 256 258 261 264 266 266 264 262 261 262 266 270 272 273 276 278 280 280 279 282 287 290 292 294 294 293 293 292 293 294 295 295 294 293 290 288 288 289 290 293 294 295 296 296 296 297 297 297 297 297 297 298 301 302 304 305 307 308 308 307 306 305 304 303 302 300 298 296 294 293 290
242 242 242 242 243 245 247 248 250 253 254 255 257 260 264 265 265 265 268 271 272 272 271 271 271 272 274 276 278 281 282 281 281 283 288 291 293 294 293 292 292 292 293 294 294 294 293 291 290 289 289 289 290 292 294 296 296 296 296 296 296 296 296 296 296 298 299 301 302 303 305 305 305 304 302 301 301 300 299 297 296 295 293 292 290
242 241 241 241 244 248 252 252 251 253 256 258 260 262 264 264 265 265 266 267 270 272 275 276 276 277 279 281 283 283 284 284 285 287 289 290 291 291 291 291 290 291 292 293 292 292 291 290 290 289 289 290 291 292 294 295 295 294 294 293 293 294 295 295 296 297 298 299 300 301 302 302 301 300 299 298 297 297 296 295 294 293 292 291 290
242 241 240 241 243 246 248 248 250 253 256 258 260 261 261 262 264 266 266 265 266 268 270 272 275 278 281 283 284 283 282 282 283 284 285 286 288 289 289 289 289 289 290 290 290 289 289 289 289 290 290 291 291 291 292 293 293 292 292 292 292 293 294 295 295 296 297 298 299 299 300 300 299 299 297 296 295 295 295 294 293 292 291 291 290
243 242 242 242 243 244 244 245 249 254 258 260 262 262 262 262 265 266 266 265 265 266 268 270 272 274 276 278 279 279 278 279 281 282 283 285 286 287 287 286 286 286 286 286 286 286 286 287 287 288 288 289 289 290 291 292 292 292 292 292 292 292 293 294 295 296 297 297 298 299 299 299 299 298 297 295 294 294 294 293 293 292 291 291 289
241 241 241 242 244 246 247 249 251 253 255 257 259 260 260 261 262 263 263 263 264 265 267 268 269 271 272 273 273 275 277 279 280 281 282 284 285 285 284 283 283 284 284 285 285 285 285 285 286 287 288 289 289 290 290 291 291 291 291 291 291 292 293 294 294 295 295 295 296 297 297 297 297 296 295 295 295 295 294 294 292 292 291 291 290
240 240 240 241 243 245 248 250 251 251 252 252 253 254 256 257 258 260 261 262 262 263 264 266 267 269 270 271 272 274 277 278 279 279 280 281 281 282 282 282 282 283 283 284 284 285 285 286 288 289 291 292 292 291 291 292 292 293 292 292 292 293 293 293 293 293 293 293 294 294 294 294 293 293 293 293 294 294 294 293 293 292 292 291 289
241 241 241 242 243 244 246 248 249 250 251 251 251 251 252 254 256 259 261 263 264 264 265 266 267 268 269 270 272 273 275 275 275 275 276 276 277 278 279 280 280 281 282 283 284 284 285 287 289 291 293 293 293 293 293 294 294 294 294 293 293 293 293 292 292 292 292 292 293 293 292 292 292 291 291 292 293 294 294 294 294 294 293 291 288
242 243 244 245 246 246 247 249 251 251 251 251 251 251 252 253 254 256 258 261 263 264 265 266 267 267 268 269 270 271 272 272 273 273 274 275 276 278 279 279 279 280 281 282 283 285 286 288 290 292 292 292 292 293 294 295 295 295 294 293 293 293 292 292 292 292 292 292 292 293 293 292 292 292 291 291 292 293 294 295 296 296 294 292 290
244 247 248 248 248 249 250 251 252 253 253 253 252 252 252 252 253 254 256 258 260 261 263 264 265 266 266 267 268 269 270 271 272 274 275 276 277 278 279 279 279 280 281 282 284 286 288 289 290 291 291 292 293 293 294 294 294 294 293 293 293 292 292 292 292 292 292 293 293 292 292 292 292 292 292 292 293 294 294 296 296 295 293 291 290
248 250 251 252 251 251 252 252 253 254 255 255 254 254 253 253 254 254 255 257 259 261 262 264 265 267 267 268 270 271 272 273 274 275 276 277 278 278 279 280 280 282 283 284 286 287 288 289 290 290 291 292 293 293 293 293 293 292 292 292 291 291 291 291 291 291 291 291 291 291 291 291 291 292 292 292 292 293 294 294 293 291 289 287 286
253 253 253 253 254 254 254 254 254 255 256 256 256 256 255 255 255 256 256 257 259 261 263 264 265 266 267 268 270 271 272 273 274 275 275 276 277 278 279 280 281 282 284 285 286 288 288 289 289 290 290 291 291 292 292 292 292 291 291 290 290 289 289 289 289 289 289 289 289 289 290 290 290 290 289 289 288 289 289 289 288 287 287 287 286
254 254 254 254 254 254 255 256 256 256 256 256 256 256 256 256 256 257 257 258 259 260 262 264 265 266 267 268 269 270 271 272 273 274 276 277 278 279 279 280 280 282 283 284 286 286 287 287 288 289 289 290 290 290 290 290 290 289 289 288 288 287 287 287 287 288 289 289 289 289 289 289 288 288 287 287 288 288 288 287 288 289 290 291 290
254 255 255 255 255 255 256 256 257 258 258 258 259 259 258 258 258 258 258 258 259 260 261 263 264 266 267 268 269 270 271 273 274 275 276 277 278 279 279 280 281 282 283 284 285 286 286 287 288 288 289 289 289 289 289 289 288 288 287 286 286 287 287 288 288 289 289 289 288 288 287 287 287 287 287 287 287 288 288 288 288 289 290 290 290
256 256 256 256 256 256 257 257 257 258 258 259 259 260 260 260 261 261 261 261 261 261 262 263 264 266 267 269 270 271 273 274 275 276 277 278 279 279 280 281 282 282 283 284 285 286 287 287 288 288 288 289 289 288 288 288 287 287 287 287 287 287 287 287 288 288 287 286 286 285 286 286 287 288 288 288 288 288 288 287 288 288 288 288 288
260 259 258 257 257 258 258 258 258 258 259 260 260 260 260 260 261 262 263 263 264 264 265 265 266 267 269 270 271 273 274 275 276 277 278 279 280 280 281 282 282 283 283 284 284 284 285 285 285 286 286 286 286 285 285 285 285 285 285 285 285 285 285 286 287 287 286 286 286 287 287 288 289 290 290 289 289 288 288 288 288 288 288 288 288
263 262 261 260 260 260 260 259 259 259 259 259 260 260 261 261 261 261 262 263 265 266 266 267 268 269 270 271 272 273 274 275 276 276 277 278 279 280 280 281 282 282 283 283 283 283 284 284 284 284 285 284 284 284 284 284 284 284 284 284 285 285 285 287 287 287 286 287 288 289 290 290 290 290 290 290 289 289 289 289 289 289 289 289 288
264 264 264 264 265 265 265 265 264 264 263 262 262 262 262 262 263 263 263 264 265 266 267 268 269 270 271 272 273 274 275 275 276 277 277 278 279 280 281 282 282 283 283 283 283 283 284 284 284 284 284 284 284 284 284 284 285 285 285 285 285 285 286 286 286 286 286 287 288 288 289 290 290 291 290 290 290 291 291 291 291 291 290 289 289
259 260 261 262 263 265 267 268 269 269 269 269 268 267 266 266 266 266 266 266 267 268 269 270 271 271 272 273 274 275 275 276 277 278 278 279 280 281 281 282 282 283 283 283 283 283 283 283 283 283 283 283 283 284 284 284 284 285 285 285 285 285 286 286 286 285 286 286 287 287 288 288 289 290 290 290 291 292 292 291 292 291 291 291 292
254 256 258 260 262 264 266 267 268 269 270 270 270 270 270 270 270 270 270 270 271 271 271 272 272 273 274 274 275 275 276 277 278 278 279 280 281 281 281 282 282 282 282 282 282 282 282 283 283 283 283 283 283 283 284 284 285 285 285 285 285 285 285 285 285 285 286 286 287 287 287 288 289 289 289 290 292 292 291 292 292 292 291 292 293
255 257 259 261 263 265 266 267 269 269 270 270 271 271 271 272 272 272 273 273 273 274 274 274 274 274 275 275 276 276 277 278 278 279 279 280 280 280 281 281 281 281 281 281 282 282 282 282 282 283 283 283 283 284 284 285 285 285 285 285 285 285 285 285 285 285 285 286 286 286 287 288 288 289 289 291 291 291 291 292 292 291 291 293 294
258 259 260 262 264 265 266 268 269 270 270 271 271 271 271 272 272 272 273 273 273 273 274 274 274 275 275 275 276 276 277 277 278 278 278 279 279 279 280 280 281 281 281 282 282 282 283 283 283 283 284 284 284 285 285 285 285 285 285 285 285 285 284 284 284 284 284 284 284 285 286 286 287 287 288 289 290 290 291 291 291 291 292 293 294
259 260 261 262 263 264 265 267 268 269 270 270 271 271 271 271 272 272 273 273 273 273 273 274 274 275 275 275 276 276 276 277 277 278 278 278 279 279 279 280 280 281 281 282 282 283 283 283 284 284 284 285 285 285 285 284 284 284 284 283 283 282 282 281 281 281 281 281 282 283 283 284 285 285 286 287 288 289 290 290 290 291 293 294 294
258 259 260 261 262 263 264 265 266 267 268 268 269 270 270 270 270 271 271 272 273 273 273 273 274 274 274 275 275 276 276 277 277 277 277 278 278 279 279 279 280 280 280 281 282 282 283 283 283 284 284 284 284 284 283 283 282 282 281 281 280 280 279 279 278 278 278 278 279 280 281 282 283 283 284 285 286 287 288 288 290 292 293 293 293
259 259 260 260 261 262 263 264 265 265 266 266 267 267 268 269 269 270 270 271 271 272 273 273 273 274 274 274 275 275 275 276 276 276 276 277 277 278 278 279 280 280 281 281 281 282 282 283 283 283 283 283 282 282 282 281 280 280 279 279 279 278 277 277 276 276 276 276 277 278 279 279 280 281 282 283 283 284 286 288 290 291 291 290 291
260 260 260 261 261 262 263 264 264 265 265 266 266 267 268 268 269 270 270 270 271 271 272 273 273 274 274 274 274 274 275 275 275 276 276 277 277 278 278 279 280 280 281 281 282 282 282 282 283 283 282 282 281 281 280 280 279 278 278 278 278 277 276 275 275 275 275 275 276 277 277 278 279 280 280 281 282 283 285 286 288 289 289 289 290
261 262 262 262 263 263 264 265 265 266 266 267 267 268 268 269 269 270 270 271 271 271 271 272 272 273 273 274 274 274 275 275 276 276 277 278 278 279 279 280 280 281 281 282 282 282 282 282 282 281 281 281 280 279 279 278 278 277 277 277 276 275 275 274 274 274 274 275 275 276 277 278 279 280 281 282 282 283 283 285 286 287 288 288 289
261 262 263 263 264 264 265 266 266 267 267 268 268 269 269 269 270 270 271 271 272 272 272 272 272 273 273 274 274 275 276 276 277 278 278 279 279 280 280 281 282 282 283 283 283 283 283 282 281 280 280 280 279 279 278 277 276 276 275 274 273 273 273 273 273 273 273 274 275 276 277 279 279 280 281 281 281 282 283 285 286 286 286 286 285
260 261 261 262 263 263 264 265 266 266 267 267 268 269 269 270 271 271 271 272 272 273 273 273 273 274 274 274 275 275 276 277 277 278 278 279 280 280 281 282 283 283 284 284 284 283 283 282 281 280 279 279 278 277 276 275 275 275 274 273 272 272 271 271 271 271 272 273 274 275 276 277 278 278 279 279 280 282 284 284 284 284 284 282 279
260 260 261 261 262 262 263 264 265 265 266 267 268 268 269 270 270 271 271 272 272 272 273 273 273 274 274 275 275 276 276 277 277 278 278 279 279 280 281 281 282 282 282 282 282 281 281 280 279 279 278 277 276 275 275 275 275 274 273 273 272 271 270 270 270 271 272 273 273 273 273 274 276 277 278 279 280 281 281 281 281 281 279 276 274
261 261 261 262 262 263 264 264 265 266 267 267 268 269 269 270 270 271 271 272 272 272 273 273 274 274 275 275 276 276 277 277 278 278 279 279 280 280 281 281 281 281 281 281 281 280 279 278 278 277 277 276 275 274 274 274 274 274 273 272 272 271 271 271 272 272 272 271 271 271 272 274 275 275 276 277 277 278 278 278 278 277 274 272 272
264 264 264 265 265 266 266 267 268 268 269 269 270 270 271 271 271 272 272 272 273 273 274 274 275 275 276 276 277 277 277 278 278 279 279 280 280 281 281 281 281 281 281 281 280 279 278 278 277 276 275 275 274 275 275 274 274 273 272 271 271 271 272 272 272 271 270 269 270 271 272 272 273 273 273 274 274 274 275 275 273 271 270 270 272
265 266 266 267 267 268 269 269 270 270 271 271 272 272 272 273 273 273 274 274 274 275 275 276 276 276 277 277 278 278 279 279 279 280 280 281 281 281 282 282 282 282 282 281 280 279 278 278 277 276 275 274 275 276 276 275 274 273 272 271 271 272 272 271 270 268 268 269 270 271 271 271 271 272 272 272 272 271 271 270 269 269 270 271 273
266 267 267 268 268 269 269 270 271 271 272 272 273 273 274 274 275 275 275 275 276 276 276 277 277 278 278 279 280 280 280 281 281 281 281 282 282 282 282 283 283 283 283 282 281 281 279 278 277 276 275 275 275 276 277 276 274 272 271 272 271 270 269 268 268 268 269 270 271 271 271 271 271 271 271 270 269 269 268 268 269 270 271 272 273
266 267 267 268 268 269 270 270 271 272 272 273 273 274 274 275 275 276 276 276 277 277 278 278 279 280 280 281 281 282 282 282 283 283 283 283 284 284 285 285 285 284 284 283 282 282 281 279 278 276 276 275 275 275 275 274 272 270 270 269 269 268 268 268 268 269 270 271 271 271 271 272 272 271 270 269 268 268 268 268 268 269 269 270 270
266 267 267 268 269 269 270 270 271 272 272 273 274 274 275 275 276 276 277 278 278 279 280 280 281 282 282 283 283 283 283 284 284 285 285 286 286 287 287 287 286 286 286 285 284 283 281 280 278 277 275 275 273 272 271 269 267 266 267 267 267 268 268 268 269 270 271 272 272 272 272 272 271 270 269 268 268 267 267 267 266 266 266 266 265
267 267 268 268 269 269 270 270 271 271 272 273 274 275 275 276 277 278 278 279 280 280 281 282 283 284 284 285 285 285 285 285 286 286 287 287 288 289 289 289 289 289 288 287 286 285 283 281 279 277 275 274 272 270 268 266 266 266 267 268 268 269 269 270 271 272 272 272 272 272 271 271 270 269 268 267 267 266 266 265 265 265 264 263 263
266 266 267 268 268 269 269 270 271 272 273 274 275 275 276 277 278 279 279 280 281 282 283 284 284 285 285 285 286 286 287 287 287 288 288 289 289 290 290 291 291 291 290 289 288 287 285 283 281 278 276 274 272 271 269 268 268 268 269 268 268 269 269 270 271 271 271 270 270 270 270 269 268 267 267 267 266 265 265 265 265 264 263 261 261
266 266 267 268 268 269 270 271 271 272 273 274 275 276 277 278 279 280 281 282 283 284 284 285 285 285 285 286 286 287 288 289 289 290 291 291 291 291 290 289 290 290 290 289 288 287 286 284 281 279 276 274 273 272 271 270 269 269 268 268 268 268 268 269 269 269 269 268 268 268 268 267 267 266 266 265 265 265 265 265 265 264 261 259 258
267 267 268 269 269 270 270 271 272 273 274 275 276 277 278 279 280 281 282 283 283 284 284 284 285 285 285 286 287 287 288 289 290 291 292 293 293 292 291 290 290 289 289 289 289 288 286 284 281 278 276 274 273 272 271 270 270 269 268 268 267 267 267 267 267 267 267 267 267 266 266 265 265 265 265 264 264 265 265 264 263 261 259 257 255
268 268 269 269 270 270 271 272 273 275 276 276 277 278 279 279 280 281 282 282 283 283 284 284 284 285 286 286 287 287 288 289 290 291 292 292 292 292 292 292 291 291 290 290 289 288 286 284 281 278 275 274 273 272 270 270 269 269 268 268 268 267 268 268 268 268 268 268 267 266 266 265 265 265 264 264 263 263 262 260 258 257 256 254 252
268 268 269 270 270 271 272 274 275 276 276 277 277 278 279 279 280 281 281 282 282 283 283 284 284 285 285 286 286 287 288 289 290 290 291 291 291 291 291 291 291 291 290 289 288 287 286 284 281 278 275 273 272 271 270 269 269 269 269 269 269 270 270 270 270 269 268 267 267 266 266 267 267 266 264 262 260 258 256 255 253 252 251 250 248
268 268 269 270 271 272 273 274 275 276 276 277 278 279 279 280 280 281 281 281 282 282 283 284 284 284 285 286 287 288 289 290 291 291 290 290 290 290 290 290 290 290 290 289 287 285 284 283 281 278 275 273 272 271 271 270 270 270 270 270 270 270 269 268 268 267 268 267 267 267 267 267 266 264 261 258 255 253 251 249 247 246 246 246 246
Height
10596 10597 10598 10599 10599 10600 10601 10602 10604 10605 10607 10609 10609 10610 10610 10609 10610 10611 10612 10613 10614 10616 10617 10618 10618 10618 10619 10620 10621 10622 10623 10624 10625 10625 10626 10626 10626 10625 10625 10624 10623 10623 10623 10622 10622 10622 10622 10622 10621 10620 10619 10618 10618 10618 10618 10618 10617 10616 10614 10613 10611 10610 10608 10607 10606 10605 10604 10603 10602 10601 10600 10599 10597 10596 10595 10593 10592 10590 10588 10586 10585 10584 10583 10582 10581
10594 10595 10596 10597 10597 10597 10597 10598 10599 10600 10601 10603 10604 10605 10605 10604 10604 10605 10607 10608 10609 10611 10612 10613 10613 10614 10614 10615 10616 10617 10618 10619 10619 10619 10620 10620 10621 10621 10620 10620 10619 10618 10618 10617 10617 10617 10617 10616 10616 10615 10613 10612 10612 10611 10611 10612 10612 10611 10610 10608 10607 10605 10603 10602 10600 10599 10597 10596 10595 10594 10592 10591 10590 10589 10588 10587 10585 10583 10581 10580 10579 10578 10577 10576 10575
10591 10592 10593 10593 10593 10593 10593 10593 10594 10595 10596 10598 10599 10600 10599 10599 10599 10600 10602 10603 10604 10605 10607 10607 10608 10609 10610 10610 10610 10611 10612 10613 10613 10613 10614 10614 10615 10615 10615 10614 10614 10613 10612 10612 10611 10611 10611 10610 10610 10609 10608 10607 10606 10605 10604 10604 10604 10603 10603 10602 10601 10599 10598 10597 10595 10593 10592 10590 10589 10587 10585 10584 10582 10581 10581 10580 10579 10577 10575 10573 10571 10571 10570 10569 10568
10586 10587 10587 10588 10589 10589 10589 10588 10589 10589 10591 10593 10594 10593 10593 10594 10594 10595 10596 10598 10599 10600 10601 10602 10603 10604 10605 10605 10605 10606 10606 10607 10607 10607 10608 10608 10608 10609 10609 10608 10608 10607 10607 10606 10605 10605 10604 10604 10604 10603 10602 10601 10600 10598 10597 10596 10595 10595 10595 10594 10593 10592 10591 10591 10589 10588 10587 10585 10583 10582 10579 10576 10574 10574 10573 10572 10571 10571 10569 10567 10565 10564 10563 10563 10562
10581 10582 10583 10584 10584 10584 10585 10584 10584 10584 10586 10587 10588 10587 10587 10588 10589 10589 10591 10592 10593 10594 10596 10597 10598 10599 10599 10600 10600 10600 10601 10601 10601 10601 10601 10601 10601 10601 10601 10601 10601 10601 10600 10600 10599 10599 10598 10598 10597 10596 10595 10594 10592 10591 10590 10589 10588 10587 10586 10585 10585 10584 10583 10583 10582 10581 10580 10579 10577 10575 10573 10570 10567 10566 10565 10564 10563 10563 10562 10561 10559 10557 10556 10556 10555
10576 10578 10579 10580 10580 10580 10580 10580 10580 10580 10581 10582 10582 10581 10582 10583 10584 10585 10586 10587 10588 10589 10591 10592 10593 10593 10594 10594 10595 10595 10595 10595 10594 10594 10594 10594 10594 10594 10594 10595 10595 10595 10594 10594 10594 10593 10592 10592 10591 10590 10588 10587 10585 10584 10583 10582 10581 10580 10578 10577 10575 10574 10574 10573 10572 10571 10570 10569 10568 10567 10565 10563 10560 10558 10557 10556 10555 10555 10553 10553 10552 10550 10549 10548 10547
10571 10573 10574 10575 10575 10576 10577 10577 10576 10576 10577 10577 10577 10577 10577 10577 10578 10579 10580 10581 10583 10584 10585 10586 10587 10587 10588 10588 10588 10589 10588 10588 10588 10588 10588 10588 10588 10588 10588 10589 10589 10588 10588 10588 10587 10587 10586 10585 10584 10583 10582 10581 10579 10579 10577 10576 10575 10573 10571 10569 10567 10565 10564 10562 10561 10560 10559 10558 10558 10557 10555 10554 10553 10551 10550 10548 10547 10546 10545 10544 10543 10542 10541 10540 10539
10566 10568 10569 10570 10570 10571 10572 10572 10571 10571 10572 10573 10572 10572 10572 10573 10573 10573 10574 10576 10578 10580 10580 10581 10581 10581 10581 10582 10582 10582 10582 10582 10582 10582 10582 10582 10583 10583 10582 10582 10582 10582 10582 10581 10580 10580 10579 10578 10578 10577 10576 10575 10574 10573 10572 10570 10569 10567 10565 10562 10560 10558 10556 10554 10552 10550 10549 10548 10547 10547 10546 10545 10544 10543 10541 10540 10539 10538 10537 10536 10535 10534 10533 10532 10531
10562 10565 10565 10566 10566 10567 10567 10567 10567 10567 10567 10567 10568 10568 10568 10569 10570 10568 10566 10568 10571 10574 10575 10576 10576 10575 10575 10576 10576 10577 10577 10577 10577 10577 10576 10576 10576 10576 10576 10575 10575 10575 10574 10574 10573 10573 10572 10571 10571 10570 10569 10568 10567 10566 10565 10564 10562 10560 10558 10556 10555 10553 10551 10548 10546 10544 10542 10541 10539 10538 10537 10536 10535 10534 10533 10532 10531 10530 10529 10528 10527 10526 10524 10523 10522
10558 10561 10561 10562 10562 10562 10562 10563 10564 10563 10562 10562 10564 10564 10563 10564 10566 10564 10562 10561 10562 10564 10566 10567 10568 10568 10568 10569 10570 10570 10570 10570 10569 10569 10568 10568 10568 10568 10568 10568 10567 10567 10567 10567 10566 10565 10565 10564 10563 10563 10562 10561 10560 10559 10558 10557 10555 10554 10552 10550 10549 10547 10545 10543 10541 10539 10537 10535 10532 10530 10529 10528 10527 10526 10525 10523 10522 10522 10521 10519 10518 10518 10517 10515 10514
10553 10555 10556 10557 10557 10557 10557 10558 10557 10557 10557 10559 10559 10560 10560 10559 10560 10560 10560 10559 10558 10557 10557 10558 10558 10558 10559 10561 10562 10562 10562 10561 10561 10561 10561 10561 10560 10560 10560 10560 10560 10559 10559 10559 10558 10558 10557 10556 10555 10555 10554 10553 10552 10551 10551 10550 10548 10547 10545 10544 10542 10541 10539 10537 10535 10533 10531 10528 10526 10524 10522 10520 10520 10519 10517 10515 10514 10513 10512 10511 10510 10509 10508 10507 10506
10548 10549 10550 10552 10552 10552 10552 10552 10551 10552 10553 10554 10554 10555 10556 10555 10555 10555 10556 10555 10553 10552 10552 10552 10551 10551 10551 10552 10554 10555 10555 10555 10555 10555 10555 10555 10555 10554 10554 10553 10553 10552 10552 10551 10551 10550 10549 10549 10548 10548 10547 10547 10546 10545 10544 10543 10542 10541 10539 10537 10535 10533 10531 10529 10527 10525 10523 10521 10519 10517 10515 10513 10511 10510 10508 10507 10505 10504 10503 10502 10501 10500 10499 10498 10497
10543 10545 10546 10547 10547 10547 10547 10547 10548 10548 10549 10549 10550 10550 10551 10552 10551 10550 10549 10549 10548 10547 10547 10547 10546 10546 10546 10547 10547 10548 10548 10549 10549 10549 10549 10549 10549 10548 10548 10547 10547 10547 10547 10546 10546 10545 10544 10544 10543 10542 10542 10541 10539 10538 10537 10535 10534 10533 10531 10530 10527 10525 10523 10521 10518 10515 10513 10511 10509 10508 10505 10503 10501 10499 10498 10497 10496 10495 10495 10493 10492 10491 10490 10489 10488
10538 10539 10540 10541 10542 10542 10542 10543 10543 10544 10544 10544 10545 10545 10546 10547 10546 10543 10542 10543 10543 10542 10541 10540 10540 10541 10541 10542 10542 10542 10542 10542 10542 10542 10541 10542 10542 10541 10541 10540 10540 10540 10540 10540 10540 10539 10538 10537 10537 10536 10535 10534 10532 10530 10529 10527 10526 10524 10522 10520 10518 10516 10514 10512 10509 10506 10504 10502 10501 10499 10497 10495 10492 10489 10487 10486 10485 10485 10485 10485 10483 10482 10481 10480 10479
10532 10533 10534 10535 10536 10536 10536 10536 10537 10538 10539 10539 10539 10539 10540 10541 10540 10537 10537 10537 10537 10536 10536 10534 10534 10535 10535 10535 10535 10535 10536 10536 10535 10535 10534 10534 10534 10534 10534 10533 10533 10532 10532 10531 10531 10531 10530 10529 10528 10526 10525 10524 10522 10521 10520 10518 10516 10514 10511 10509 10507 10506 10504 10501 10499 10497 10495 10493 10492 10492 10490 10487 10485 10482 10478 10476 10475 10475 10475 10475 10475 10474 10473 10472 10470
10526 10527 10528 10529 10530 10531 10530 10529 10529 10531 10532 10533 10533 10533 10534 10535 10534 10533 10532 10531 10530 10530 10530 10529 10528 10529 10529 10528 10528 10528 10529 10529 10528 10528 10528 10528 10527 10527 10526 10526 10526 10525 10524 10523 10523 10523 10522 10521 10519 10517 10515 10512 10510 10509 10509 10508 10506 10504 10501 10498 10496 10495 10492 10489 10488 10487 10485 10483 10482 10481 10480 10478 10477 10475 10471 10467 10465 10464 10464 10464 10465 10465 10464 10462 10461
10520 10521 10523 10524 10524 10525 10525 10522 10522 10524 10525 10526 10527 10526 10527 10528 10527 10527 10526 10524 10523 10523 10523 10522 10522 10522 10522 10521 10520 10521 10521 10521 10520 10520 10519 10519 10519 10518 10518 10518 10517 10516 10515 10514 10514 10514 10513 10512 10510 10508 10505 10502 10500 10500 10499 10498 10496 10494 10490 10487 10485 10483 10480 10477 10476 10475 10474 10472 10471 10470 10469 10468 10467 10466 10463 10459 10457 10455 10453 10453 10453 10453 10453 10451 10450
10514 10515 10516 10517 10518 10518 10519 10517 10516 10517 10517 10519 10519 10519 10519 10519 10519 10519 10519 10517 10515 10516 10516 10515 10515 10514 10514 10513 10511 10512 10512 10512 10511 10510 10510 10510 10509 10509 10509 10509 10508 10507 10505 10505 10505 10504 10503 10502 10500 10499 10496 10493 10491 10490 10489 10488 10486 10483 10480 10477 10475 10472 10468 10465 10464 10463 10462 10461 10460 10458 10458 10458 10457 10455 10453 10450 10447 10445 10443 10443 10443 10443 10441 10440 10439
10506 10508 10508 10509 10510 10510 10511 10511 10511 10510 10510 10511 10511 10511 10511 10511 10511 10511 10511 10509 10507 10507 10506 10507 10507 10505 10505 10504 10502 10502 10502 10501 10501 10500 10500 10500 10499 10499 10498 10498 10497 10496 10495 10495 10494 10494 10493 10491 10489 10487 10486 10483 10481 10480 10478 10477 10475 10472 10469 10468 10466 10462 10457 10455 10454 10453 10451 10450 10449 10447 10448 10448 10447 10446 10445 10442 10438 10435 10433 10434 10434 10432 10431 10430 10429
10497 10498 10499 10500 10501 10502 10502 10503 10503 10503 10503 10503 10503 10503 10503 10503 10503 10503 10503 10502 10501 10498 10496 10497 10497 10496 10495 10494 10493 10492 10491 10491 10491 10490 10490 10490 10490 10489 10488 10487 10486 10485 10484 10484 10483 10482 10481 10479 10478 10476 10475 10474 10471 10469 10467 10465 10464 10462 10460 10457 10455 10452 10449 10447 10445 10443 10441 10440 10438 10437 10437 10437 10437 10437 10437 10435 10433 10430 10428 10425 10422 10419 10417 10416 10416
10486 10488 10490 10491 10492 10493 10494 10495 10495 10496 10496 10495 10495 10495 10494 10495 10495 10495 10495 10494 10493 10491 10489 10488 10488 10487 10486 10484 10483 10482 10481 10481 10480 10480 10479 10479 10478 10478 10477 10476 10475 10475 10474 10473 10472 10471 10469 10468 10466 10464 10464 10463 10461 10459 10457 10455 10454 10453 10451 10448 10445 10442 10440 10437 10435 10433 10431 10428 10426 10426 10426 10426 10426 10427 10428 10427 10425 10423 10420 10415 10411 10407 10404 10401 10399
10477 10479 10481 10482 10484 10484 10485 10486 10487 10487 10488 10488 10488 10487 10486 10486 10487 10486 10486 10485 10485 10484 10483 10481 10480 10478 10476 10475 10474 10473 10472 10471 10470 10469 10469 10468 10467 10466 10465 10464 10464 10464 10463 10462 10460 10459 10458 10456 10454 10453 10452 10452 10450 10448 10446 10445 10444 10443 10441 10437 10434 10432 10429 10426 10425 10423 10419 10415 10415 10415 10413 10413 10414 10416 10418 10418 10416 10413 10410 10406 10402 10398 10394 10390 10387
10468 10471 10472 10473 10474 10475 10476 10477 10478 10478 10479 10479 10479 10479 10478 10477 10476 10475 10475 10475 10475 10475 10474 10473 10472 10470 10468 10466 10464 10463 10462 10461 10459 10458 10457 10456 10455 10454 10453 10451 10451 10451 10451 10450 10448 10447 10446 10444 10442 10441 10439 10439 10437 10435 10434 10433 10431 10431 10429 10426 10423 10421 10417 10414 10415 10414 10408 10404 10405 10404 10402 10402 10402 10403 10405 10405 10404 10401 10399 10396 10392 10389 10385 10381 10378
10457 10460 10463 10464 10465 10467 10468 10468 10469 10469 10469 10469 10469 10469 10468 10468 10467 10465 10464 10464 10463 10464 10464 10463 10462 10460 10459 10457 10454 10453 10452 10451 10449 10447 10445 10443 10442 10441 10439 10438 10437 10437 10438 10438 10438 10437 10435 10434 10432 10431 10429 10428 10426 10424 10423 10422 10421 10421 10420 10417 10416 10412 10406 10404 10406 10402 10394 10391 10392 10390 10389 10390 10390 10389 10389 10389 10388 10387 10385 10382 10379 10376 10373 10369 10366
10446 10449 10451 10453 10455 10457 10458 10458 10459 10459 10459 10459 10459 10458 10458 10458 10457 10456 10455 10454 10453 10452 10452 10451 10451 10450 10449 10447 10445 10442 10440 10439 10437 10436 10434 10433 10431 10428 10427 10426 10425 10424 10424 10424 10424 10425 10424 10423 10421 10420 10418 10415 10414 10412 10411 10410 10410 10410 10410 10408 10407 10402 10397 10396 10394 10387 10379 10378 10377 10375 10374 10374 10375 10374 10373 10372 10372 10372 10370 10368 10365 10362 10359 10357 10354
10439 10439 10441 10443 10444 10445 10446 10447 10447 10447 10448 10448 10448 10448 10447 10447 10447 10446 10445 10445 10443 10443 10442 10441 10439 10439 10438 10437 10434 10431 10428 10426 10423 10422 10421 10420 10419 10417 10415 10413 10412 10412 10412 10411 10410 10411 10411 10410 10409 10407 10405 10402 10400 10399 10398 10397 10396 10396 10396 10396 10395 10391 10388 10386 10381 10373 10368 10366 10365 10364 10362 10360 10359 10358 10356 10356 10357 10357 10356 10354 10352 10350 10347 10344 10342
10432 10432 10433 10434 10435 10436 10436 10436 10436 10436 10436 10436 10436 10436 10436 10435 10435 10434 10434 10434 10433 10432 10431 10430 10428 10427 10426 10424 10422 10419 10416 10413 10410 10408 10407 10407 10406 10405 10403 10401 10399 10398 10397 10396 10397 10397 10397 10396 10396 10394 10392 10390 10387 10386 10385 10385 10384 10383 10383 10383 10382 10380 10378 10374 10368 10361 10356 10354 10352 10352 10351 10350 10348 10345 10342 10342 10343 10343 10342 10341 10339 10337 10334 10332 10331
10424 10424 10425 10425 10426 10427 10427 10427 10427 10427 10426 10426 10425 10425 10425 10424 10423 10422 10422 10422 10421 10420 10419 10417 10416 10415 10413 10411 10409 10407 10404 10401 10398 10396 10394 10393 10393 10392 10390 10388 10386 10385 10383 10382 10382 10382 10382 10382 10381 10380 10378 10376 10374 10373 10372 10371 10370 10369 10369 10369 10368 10368 10367 10362 10354 10348 10344 10341 10339 10337 10337 10337 10336 10332 10330 10329 10329 10329 10328 10328 10327 10325 10322 10321 10320
10416 10416 10416 10416 10416 10416 10416 10416 10416 10416 10416 10416 10415 10415 10414 10413 10412 10411 10410 10410 10409 10407 10406 10405 10403 10402 10401 10399 10397 10395 10392 10388 10385 10384 10382 10381 10380 10378 10376 10373 10372 10371 10370 10369 10368 10368 10368 10367 10366 10365 10364 10362 10360 10359 10358 10357 10355 10354 10353 10353 10353 10352 10352 10348 10341 10335 10332 10329 10325 10324 10324 10324 10323 10320 10318 10317 10316 10315 10315 10316 10316 10314 10311 10310 10310
10406 10406 10406 10406 10406 10406 10405 10405 10405 10405 10405 10405 10405 10404 10404 10403 10401 10400 10398 10398 10398 10396 10395 10393 10391 10389 10388 10386 10384 10383 10380 10376 10373 10371 10369 10367 10366 10365 10363 10360 10357 10356 10354 10354 10354 10353 10351 10351 10350 10349 10348 10347 10346 10345 10344 10342 10341 10339 10337 10338 10338 10337 10337 10334 10328 10322 10319 10316 10314 10313 10312 10312 10311 10310 10308 10306 10305 10304 10304 10305 10304 10303 10302 10301 10300
10396 10396 10396 10396 10395 10395 10395 10395 10395 10395 10394 10394 10393 10392 10392 10391 10391 10389 10387 10385 10385 10385 10384 10382 10379 10377 10375 10373 10370 10368 10367 10365 10362 10358 10356 10353 10352 10351 10349 10347 10345 10342 10340 10339 10339 10338 10336 10335 10334 10334 10333 10332 10331 10330 10329 10328 10326 10324 10323 10322 10323 10322 10322 10320 10316 10311 10306 10303 10302 10302 10301 10300 10300 10299 10298 10296 10295 10294 10293 10294 10293 10293 10292 10291 10290
10385 10385 10385 10385 10385 10384 10384 10384 10384 10384 10384 10383 10382 10380 10379 10378 10379 10378 10377 10374 10373 10372 10371 10369 10367 10364 10362 10360 10358 10355 10353 10351 10349 10347 10343 10341 10338 10336 10334 10332 10330 10329 10328 10327 10326 10324 10322 10321 10320 10320 10319 10318 10316 10315 10314 10313 10311 10309 10308 10307 10307 10307 10307 10305 10302 10299 10295 10292 10291 10292 10291 10290 10289 10289 10289 10288 10286 10285 10284 10284 10284 10285 10284 10282 10281
10373 10373 10373 10373 10373 10372 10372 10373 10373 10373 10372 10371 10370 10369 10367 10365 10365 10365 10365 10364 10362 10360 10358 10356 10353 10351 10349 10348 10346 10344 10340 10337 10335 10332 10330 10328 10325 10323 10320 10317 10315 10314 10314 10314 10313 10312 10309 10307 10306 10305 10304 10303 10302 10300 10299 10297 10296 10294 10293 10293 10293 10293 10292 10289 10287 10285 10283 10282 10281 10281 10281 10280 10280 10280 10280 10280 10278 10277 10276 10276 10276 10277 10276 10274 10273
10360 10360 10360 10360 10360 10360 10359 10360 10360 10359 10359 10358 10357 10356 10355 10353 10352 10351 10350 10350 10350 10348 10346 10343 10340 10337 10335 10333 10332 10329 10326 10323 10320 10318 10316 10314 10312 10310 10308 10305 10302 10300 10299 10299 10299 10298 10297 10295 10292 10289 10287 10287 10287 10286 10284 10283 10281 10280 10280 10281 10281 10279 10277 10275 10274 10272 10271 10271 10271 10271 10270 10270 10271 10271 10272 10271 10270 10269 10269 10269 10269 10268 10267 10266 10265
10347 10347 10347 10347 10347 10346 10346 10346 10346 10345 10345 10345 10344 10343 10342 10341 10339 10338 10336 10335 10334 10334 10333 10331 10328 10324 10321 10318 10317 10314 10311 10308 10306 10304 10302 10300 10298 10295 10293 10291 10289 10287 10286 10285 10285 10284 10283 10282 10279 10275 10272 10272 10272 10272 10271 10270 10268 10267 10268 10269 10267 10265 10264 10263 10262 10261 10260 10259 10259 10260 10259 10260 10261 10262 10262 10262 10261 10261 10261 10261 10260 10259 10258 10258 10257
10334 10334 10334 10334 10333 10333 10333 10333 10332 10332 10332 10331 10330 10329 10328 10327 10327 10325 10323 10321 10320 10319 10318 10317 10315 10312 10308 10305 10302 10300 10297 10295 10293 10291 10288 10285 10283 10280 10277 10275 10274 10273 10272 10271 10270 10269 10268 10267 10265 10261 10259 10258 10258 10258 10258 10257 10255 10256 10257 10256 10254 10254 10253 10252 10251 10250 10250 10249 10249 10250 10250 10250 10251 10251 10252 10252 10251 10251 10251 10252 10251 10251 10251 10250 10249
10321 10321 10322 10321 10321 10320 10320 10319 10319 10319 10318 10317 10316 10315 10315 10315 10314 10312 10310 10308 10306 10304 10302 10301 10299 10298 10295 10292 10289 10287 10284 10282 10280 10278 10275 10272 10269 10267 10264 10262 10261 10260 10258 10257 10256 10254 10253 10252 10250 10248 10247 10246 10245 10244 10244 10243 10243 10245 10245 10244 10243 10243 10242 10241 10240 10240 10241 10241 10241 10241 10241 10240 10240 10241 10242 10242 10242 10242 10243 10243 10243 10243 10243 10243 10241
10308 10308 10308 10308 10308 10308 10307 10307 10307 10306 10305 10304 10303 10303 10302 10302 10300 10298 10296 10294 10292 10290 10288 10286 10284 10283 10281 10278 10276 10274 10271 10269 10267 10265 10263 10260 10258 10256 10253 10252 10250 10248 10246 10245 10244 10242 10240 10239 10237 10236 10235 10234 10232 10230 10231 10232 10233 10233 10233 10232 10232 10232 10232 10231 10231 10232 10233 10233 10232 10231 10231 10231 10232 10233 10234 10234 10235 10235 10234 10234 10235 10236 10235 10234 10233
10294 10294 10294 10294 10294 10294 10294 10294 10294 10293 10292 10291 10290 10290 10289 10288 10286 10284 10283 10281 10278 10276 10274 10272 10270 10269 10267 10266 10264 10262 10259 10257 10255 10253 10251 10248 10246 10244 10242 10241 10239 10236 10234 10233 10231 10230 10228 10228 10226 10225 10224 10222 10218 10218 10220 10222 10222 10221 10221 10221 10221 10222 10222 10222 10223 10223 10223 10222 10221 10221 10223 10224 10225 10226 10226 10227 10227 10226 10226 10227 10227 10227 10227 10225 10225
10281 10281 10280 10280 10280 10280 10280 10280 10280 10280 10279 10278 10277 10276 10275 10274 10273 10271 10269 10267 10265 10263 10262 10260 10258 10257 10255 10253 10252 10250 10248 10246 10244 10241 10239 10237 10234 10232 10231 10229 10227 10225 10223 10221 10219 10218 10218 10217 10215 10214 10213 10211 10207 10206 10209 10212 10211 10209 10209 10210 10211 10212 10212 10213 10214 10213 10212 10212 10212 10214 10215 10216 10217 10218 10218 10219 10219 10219 10219 10219 10219 10219 10218 10218 10218
10268 10268 10267 10267 10267 10267 10267 10267 10267 10266 10265 10264 10263 10263 10262 10261 10260 10258 10256 10255 10253 10251 10250 10248 10247 10245 10243 10242 10240 10238 10236 10234 10232 10230 10228 10225 10223 10221 10219 10218 10216 10215 10213 10210 10208 10208 10208 10207 10205 10204 10202 10200 10198 10197 10199 10202 10201 10199 10199 10200 10202 10202 10202 10203 10202 10202 10202 10203 10205 10206 10207 10208 10209 10210 10210 10211 10211 10211 10211 10211 10211 10211 10211 10212 10212
10256 10256 10255 10255 10255 10255 10255 10255 10254 10253 10253 10252 10251 10250 10249 10248 10247 10246 10244 10243 10241 10240 10238 10237 10236 10234 10232 10230 10228 10226 10224 10222 10221 10219 10217 10214 10212 10210 10209 10208 10206 10205 10203 10201 10199 10198 10198 10197 10196 10194 10192 10191 10190 10189 10189 10192 10192 10190 10189 10190 10191 10192 10192 10192 10192 10193 10195 10196 10198 10199 10199 10200 10201 10202 10202 10202 10203 10203 10203 10203 10204 10204 10205 10206 10207
10245 10244 10244 10244 10244 10244 10244 10243 10243 10242 10241 10240 10239 10239 10238 10237 10236 10235 10233 10231 10230 10228 10227 10226 10225 10223 10222 10220 10218 10215 10213 10211 10210 10208 10206 10204 10202 10200 10199 10198 10197 10195 10193 10191 10190 10189 10189 10188 10187 10185 10183 10183 10183 10182 10182 10183 10182 10180 10180 10181 10181 10182 10183 10183 10184 10185 10187 10188 10190 10191 10192 10192 10193 10194 10194 10194 10195 10195 10196 10197 10197 10198 10199 10200 10201
10234 10234 10233 10233 10233 10233 10233 10233 10232 10231 10230 10229 10229 10228 10227 10226 10225 10223 10222 10221 10219 10218 10217 10216 10214 10213 10211 10209 10207 10205 10202 10201 10199 10198 10196 10194 10193 10191 10189 10188 10188 10186 10184 10182 10181 10181 10180 10179 10178 10177 10176 10175 10175 10175 10175 10174 10173 10172 10172 10173 10174 10175 10175 10176 10177 10178 10180 10181 10182 10183 10184 10185 10185 10186 10186 10187 10187 10188 10189 10190 10191 10192 10193 10194 10195
10224 10224 10224 10224 10224 10223 10223 10223 10222 10221 10221 10220 10219 10218 10217 10216 10215 10213 10212 10210 10209 10208 10207 10206 10205 10203 10201 10199 10197 10195 10193 10191 10190 10189 10187 10185 10185 10184 10181 10179 10178 10178 10176 10174 10173 10173 10172 10172 10171 10170 10168 10167 10167 10167 10167 10167 10166 10166 10167 10167 10168 10168 10169 10169 10170 10172 10173 10174 10175 10176 10176 10177 10178 10178 10179 10180 10181 10182 10183 10184 10185 10186 10187 10188 10189
10215 10215 10215 10215 10214 10214 10214 10213 10213 10212 10212 10211 10210 10209 10207 10206 10205 10204 10202 10201 10200 10199 10198 10197 10196 10194 10192 10190 10188 10186 10185 10183 10182 10181 10179 10178 10177 10177 10175 10172 10171 10170 10168 10167 10166 10165 10165 10164 10163 10162 10161 10160 10159 10160 10160 10161 10160 10160 10161 10161 10162 10162 10162 10163 10164 10165 10166 10168 10168 10169 10169 10170 10171 10172 10173 10173 10174 10175 10176 10178 10179 10180 10182 10183 10184
10207 10206 10206 10206 10206 10206 10205 10205 10204 10204 10203 10202 10201 10200 10199 10197 10196 10195 10193 10192 10192 10191 10189 10188 10187 10185 10184 10182 10180 10179 10177 10176 10174 10172 10171 10169 10168 10168 10168 10166 10165 10163 10161 10160 10159 10158 10158 10157 10157 10156 10155 10154 10153 10153 10154 10154 10154 10154 10155 10155 10155 10156 10156 10157 10158 10159 10160 10161 10162 10162 10163 10164 10164 10165 10167 10167 10168 10170 10171 10172 10173 10175 10176 10177 10178
10198 10198 10198 10198 10198 10197 10197 10197 10196 10196 10195 10194 10193 10192 10190 10189 10188 10186 10185 10185 10184 10183 10182 10180 10179 10177 10176 10175 10174 10172 10171 10169 10168 10166 10164 10162 10160 10159 10159 10159 10158 10158 10156 10154 10152 10152 10151 10151 10150 10150 10149 10148 10147 10147 10148 10148 10148 10148 10148 10149 10149 10150 10150 10151 10152 10153 10154 10155 10156 10156 10157 10158 10158 10160 10161 10162 10163 10164 10165 10167 10168 10169 10170 10171 10173
10191 10190 10190 10190 10190 10190 10189 10189 10188 10188 10187 10186 10185 10184 10183 10182 10180 10179 10178 10177 10176 10175 10174 10173 10172 10171 10169 10168 10167 10166 10165 10164 10162 10161 10159 10157 10154 10153 10152 10151 10151 10151 10150 10148 10146 10145 10145 10145 10145 10144 10143 10142 10142 10142 10142 10142 10142 10143 10143 10143 10143 10144 10145 10146 10146 10147 10148 10149 10150 10150 10151 10152 10153 10154 10155 10157 10158 10159 10160 10161 10162 10163 10165 10166 10167
10183 10183 10182 10182 10182 10182 10182 10182 10181 10180 10180 10179 10178 10177 10176 10175 10174 10173 10172 10171 10169 10168 10167 10166 10165 10164 10162 10161 10160 10160 10159 10158 10157 10156 10155 10152 10150 10148 10147 10146 10144 10144 10144 10143 10141 10140 10139 10139 10139 10139 10138 10137 10136 10136 10136 10137 10137 10137 10137 10138 10138 10139 10140 10140 10141 10142 10143 10144 10144 10145 10146 10147 10148 10149 10150 10151 10152 10153 10154 10155 10157 10158 10159 10160 10162
10175 10175 10175 10176 10176 10176 10175 10175 10174 10173 10172 10171 10170 10169 10169 10168 10167 10166 10165 10164 10163 10162 10161 10160 10159 10157 10156 10155 10154 10154 10153 10152 10151 10150 10149 10148 10146 10144 10142 10141 10140 10138 10138 10137 10136 10135 10134 10133 10133 10133 10133 10132 10131 10131 10131 10131 10132 10132 10132 10133 10133 10134 10135 10135 10136 10136 10137 10138 10139 10140 10141 10141 10142 10143 10144 10145 10146 10147 10148 10149 10151 10152 10154 10155 10157